Weather History for Pau, France

Change the Weather History Date:

Saturday, October 27, 2012

  Actual Average Record
Temperature  
Mean Temperature 47 °F -  
Max Temperature 57 °F 56 °F 78 °F (2005)
Min Temperature 35 °F 41 °F 32 °F (2010)
Degree Days  
Heating Degree Days 18    
Moisture  
Dew Point 44 °F    
Average Humidity 86    
Maximum Humidity 100    
Minimum Humidity 43    
Precipitation  
Precipitation 0.00 in - - ()
Sea Level Pressure  
Sea Level Pressure 29.74 in    
Wind  
Wind Speed 8 mph ()    
Max Wind Speed 18 mph    
Max Gust Speed -    
Visibility 5.1 miles    
Events Rain    
Averages and records for this station are not official NWS values.
T = Trace of Precipitation, MM = Missing Value Source: Averaged Metar Reports

Daily Weather History Graph

Daily Weather History Graph

Search for Another Location

Airport:

Trip Planner

Search our weather history database for the weather conditions in past years. The results will help you decide how hot, cold, wet, or windy it might be!

Date:

Astronomy

Oct. 27, 2012 Rise Set
Actual Time 8:30 AM CEST 6:59 PM CEST
Civil Twilight 8:01 AM CEST 7:28 PM CEST
Nautical Twilight 7:27 AM CEST 8:02 PM CEST
Astronomical Twilight 6:54 AM CEST 8:35 PM CEST
Moon 5:40 PM CEST (10/27) 6:08 AM CEST (10/27)
Length of Visible Light 11h 27m
Length of Day
10h 28m
Waxing Gibbous, 95% of the Moon is Illuminated
Oct 27
Waxing Gibbous
Oct 29
Full
Nov 7
Last Quarter
Nov 13
New
Nov 20
First Quarter

Hourly Weather History & Observations

Time (CEST) Temp. Windchill Dew Point Humidity Pressure Visibility Wind Dir Wind Speed Gust Speed Precip Events Conditions
12:00 AM 57.2 °F - 57.2 °F 100% 29.47 in - WSW 6.9 mph - N/A Rain Rain
12:30 AM 57.2 °F - 57.2 °F 100% 29.47 in 4.3 mi WSW 8.1 mph - N/A Rain Rain
1:00 AM 57.2 °F - 57.2 °F 100% 29.47 in - West 8.1 mph - N/A Rain Rain
1:30 AM 57.2 °F - 57.2 °F 100% 29.47 in 4.3 mi West 10.4 mph - N/A Rain Rain
2:00 AM 57.2 °F - 57.2 °F 100% 29.47 in 4.3 mi West 10.4 mph - N/A Rain Light Rain
2:30 AM 57.2 °F - 57.2 °F 100% 29.47 in 6.2 mi West 10.4 mph - N/A   Overcast
3:00 AM 57.2 °F - 55.4 °F 94% 29.47 in 6.2 mi West 10.4 mph - N/A   Overcast
3:30 AM 57.2 °F - 57.2 °F 100% 29.50 in 3.1 mi NW 6.9 mph - N/A Rain Light Rain
4:00 AM 57.2 °F - 55.4 °F 94% 29.50 in 3.7 mi NNW 8.1 mph - N/A   Overcast
4:30 AM 57.2 °F - 55.4 °F 94% 29.50 in 3.7 mi NW 8.1 mph - N/A   Overcast
5:00 AM 55.4 °F - 55.4 °F 100% 29.50 in 3.1 mi NW 10.4 mph - N/A   Overcast
5:30 AM 55.4 °F - 55.4 °F 100% 29.50 in 1.6 mi NW 8.1 mph - N/A Rain Light Rain
6:00 AM 55.4 °F - 53.6 °F 94% 29.50 in 1.6 mi NNW 10.4 mph - N/A   Heavy Drizzle
6:30 AM 51.8 °F - 51.8 °F 100% 29.53 in 5.6 mi NNW 12.7 mph - N/A   Overcast
7:00 AM 51.8 °F - 50.0 °F 94% 29.56 in 5.0 mi NNW 9.2 mph - N/A   Overcast
7:30 AM 51.8 °F - 50.0 °F 94% 29.56 in 5.0 mi NNW 10.4 mph - N/A Rain Light Rain
8:00 AM 51.8 °F - 50.0 °F 94% 29.56 in 4.3 mi NNW 9.2 mph - N/A Rain Light Rain
8:30 AM 51.8 °F - 50.0 °F 94% 29.59 in 2.5 mi NW 10.4 mph - N/A   Light Drizzle
9:00 AM 51.8 °F - 50.0 °F 94% 29.62 in 2.5 mi NNW 11.5 mph - N/A Rain Light Rain
9:30 AM 50.0 °F - 48.2 °F 94% 29.65 in 3.7 mi NNW 13.8 mph - N/A Rain Light Rain
10:00 AM 48.2 °F - 46.4 °F 93% 29.68 in 5.0 mi NNW 11.5 mph - N/A   Overcast
10:30 AM 48.2 °F - 46.4 °F 93% 29.68 in 3.7 mi NNW 10.4 mph - N/A   Overcast
11:00 AM 48.2 °F - 48.2 °F 100% 29.71 in 3.7 mi NNW 6.9 mph - N/A   Light Drizzle
11:30 AM 46.4 °F 40.4 °F 46.4 °F 100% 29.71 in 4.3 mi NNW 13.8 mph - N/A   Overcast
12:00 PM 46.4 °F 39.8 °F 42.8 °F 87% 29.74 in 6.2 mi NNW 16.1 mph - N/A   Overcast
12:30 PM 46.4 °F 40.1 °F 41.0 °F 81% 29.77 in 6.2 mi NNW 15.0 mph - N/A   Mostly Cloudy
1:00 PM 46.4 °F 39.5 °F 39.2 °F 76% 29.80 in 6.2 mi North 17.3 mph - N/A   Scattered Clouds
1:30 PM 48.2 °F - 39.2 °F 71% 29.83 in 6.2 mi NNW 15.0 mph - N/A   Partly Cloudy
2:00 PM 48.2 °F - 32.0 °F 54% 29.83 in 6.2 mi NW 18.4 mph - N/A   Partly Cloudy
2:30 PM 50.0 °F - 28.4 °F 43% 29.86 in 6.2 mi NNW 15.0 mph - N/A   Scattered Clouds
3:00 PM 50.0 °F - 28.4 °F 43% 29.86 in 6.2 mi NNW 11.5 mph - N/A   Mostly Cloudy
3:30 PM 48.2 °F - 32.0 °F 54% 29.86 in 6.2 mi NNW 10.4 mph - N/A   Mostly Cloudy
4:00 PM 48.2 °F - 30.2 °F 50% 29.89 in 6.2 mi NW 10.4 mph - N/A   Mostly Cloudy
4:30 PM 48.2 °F - 32.0 °F 54% 29.89 in 6.2 mi NNW 9.2 mph - N/A   Mostly Cloudy
5:00 PM 46.4 °F 41.9 °F 32.0 °F 57% 29.89 in 6.2 mi NW 9.2 mph - N/A   Mostly Cloudy
5:30 PM 46.4 °F 41.9 °F 33.8 °F 62% 29.92 in 6.2 mi NW 9.2 mph - N/A   Mostly Cloudy
6:00 PM 46.4 °F 41.9 °F 33.8 °F 62% 29.92 in 6.2 mi NNW 9.2 mph - N/A   Mostly Cloudy
6:30 PM 41.0 °F 34.3 °F 35.6 °F 81% 29.95 in 6.2 mi NNE 11.5 mph - N/A   Mostly Cloudy
7:00 PM 41.0 °F 39.0 °F 35.6 °F 81% 29.95 in 6.2 mi NNE 3.5 mph - N/A   Mostly Cloudy
7:30 PM 39.2 °F - 35.6 °F 87% 29.98 in 6.2 mi WSW 2.3 mph - N/A   Partly Cloudy
8:00 PM 39.2 °F 37.0 °F 37.4 °F 93% 29.98 in 6.2 mi West 3.5 mph - N/A   Mostly Cloudy
8:30 PM 39.2 °F - 35.6 °F 87% 30.01 in 6.2 mi SW 2.3 mph - N/A   Scattered Clouds
9:00 PM 37.4 °F - 35.6 °F 93% 30.01 in 6.2 mi Calm Calm - N/A   Unknown
9:30 PM 37.4 °F - 37.4 °F 100% 30.04 in 6.2 mi South 2.3 mph - N/A   Partly Cloudy
10:00 PM 37.4 °F 34.9 °F 35.6 °F 93% 30.04 in 6.2 mi Variable 3.5 mph - N/A   Mostly Cloudy
10:30 PM 37.4 °F - 35.6 °F 93% 30.04 in 6.2 mi Variable 1.2 mph - N/A   Partly Cloudy
11:00 PM 37.4 °F 33.8 °F 35.6 °F 93% 30.06 in 6.2 mi West 4.6 mph - N/A   Unknown
11:30 PM 35.6 °F 31.7 °F 35.6 °F 100% 30.06 in 6.2 mi WSW 4.6 mph - N/A   Unknown